Sitka, AK

2:33 PM AKST on February 24, 2017 (GMT -0900)
Sitka Rocky Gutierrez

Weather History for PASI - November, 2014

Change the Weather History Date:

Thursday, November 27, 2014

  Actual Average Record
Temperature  
Mean Temperature 32 °F -  
Max Temperature 36 °F 42 °F 55 °F (2002)
Min Temperature 28 °F 34 °F 10 °F (1985)
Degree Days  
Heating Degree Days 33    
Moisture  
Dew Point 9 °F    
Average Humidity 38    
Maximum Humidity 54    
Minimum Humidity 32    
Precipitation  
Precipitation 0.00 in - - ()
Sea Level Pressure  
Sea Level Pressure 29.93 in    
Wind  
Wind Speed 12 mph (NNE)    
Max Wind Speed 25 mph    
Max Gust Speed 40 mph    
Visibility 10 miles    
Events      
Averages and records for this station are not official NWS values.
T = Trace of Precipitation, MM = Missing Value Source: NWS Daily Summary

Daily Weather History Graph

Daily Weather History Graph

Search for Another Location

Airport or City:

Trip Planner

Search our weather history database for the weather conditions in past years. The results will help you decide how hot, cold, wet, or windy it might be!

Date:

Astronomy

Nov. 27, 2014 Rise Set
Actual Time 8:07 AM AKST 3:29 PM AKST
Civil Twilight 7:21 AM AKST 4:16 PM AKST
Nautical Twilight 6:32 AM AKST 5:05 PM AKST
Astronomical Twilight 5:46 AM AKST 5:51 PM AKST
Moon 11:56 AM AKST (11/27) 9:54 PM AKST (11/27)
Length of Visible Light 8h 55m
Length of Day
7h 21m
Waxing Crescent, 33% of the Moon is Illuminated
Nov 27
Waxing Crescent
Nov 29
First Quarter
Dec 6
Full
Dec 14
Last Quarter
Dec 21
New

Hourly Weather History & Observations

Time (AKST) Temp. Windchill Dew Point Humidity Pressure Visibility Wind Dir Wind Speed Gust Speed Precip Events Conditions
12:53 AM 35.1 °F 26.9 °F 19.9 °F 54% 29.91 in 10.0 mi North 11.5 mph - N/A   Clear
1:53 AM 36.0 °F 29.6 °F 18.0 °F 48% 29.90 in 10.0 mi NNE 8.1 mph 19.6 mph N/A   Clear
2:53 AM 36.0 °F 23.9 °F 16.0 °F 44% 29.89 in 10.0 mi NE 25.3 mph 33.4 mph N/A   Clear
3:53 AM 36.0 °F 24.7 °F 12.0 °F 37% 29.89 in 10.0 mi NE 21.9 mph 40.3 mph N/A   Clear
4:53 AM 34.0 °F 26.6 °F 12.0 °F 40% 29.90 in 10.0 mi NNE 9.2 mph 31.1 mph N/A   Clear
5:53 AM 33.1 °F 21.9 °F 10.0 °F 38% 29.90 in 10.0 mi NNE 18.4 mph 28.8 mph N/A   Clear
6:53 AM 33.1 °F 23.9 °F 10.0 °F 38% 29.90 in 10.0 mi NE 12.7 mph 25.3 mph N/A   Clear
7:53 AM 32.0 °F 21.2 °F 10.0 °F 40% 29.91 in 10.0 mi North 16.1 mph 25.3 mph N/A   Clear
8:53 AM 32.0 °F 23.6 °F 10.0 °F 40% 29.91 in 10.0 mi North 10.4 mph - N/A   Clear
9:53 AM 33.8 °F 27.0 °F 8.6 °F 35% 29.91 in 10.0 mi North 8.1 mph 18.4 mph N/A   Partly Cloudy
10:53 AM 33.1 °F 28.7 °F 10.0 °F 38% 29.91 in 10.0 mi NNE 4.6 mph - N/A   Partly Cloudy
11:53 AM 33.1 °F 23.9 °F 10.9 °F 40% 29.91 in 10.0 mi North 12.7 mph 20.7 mph N/A   Clear
12:53 PM 33.1 °F 22.6 °F 10.0 °F 38% 29.91 in 10.0 mi North 16.1 mph 23.0 mph N/A   Partly Cloudy
1:53 PM 33.1 °F 23.0 °F 8.1 °F 35% 29.91 in 10.0 mi NNE 15.0 mph 20.7 mph N/A   Clear
2:53 PM 32.0 °F 24.8 °F 7.0 °F 35% 29.93 in 10.0 mi NNE 8.1 mph - N/A   Clear
3:53 PM 32.0 °F 23.6 °F 8.1 °F 37% 29.93 in 10.0 mi NNE 10.4 mph - N/A   Clear
4:53 PM 30.9 °F 24.3 °F 5.0 °F 33% 29.94 in 10.0 mi NE 6.9 mph - N/A   Clear
5:53 PM 30.9 °F 26.2 °F 3.9 °F 32% 29.94 in 10.0 mi ENE 4.6 mph - N/A   Clear
6:53 PM 30.0 °F 22.4 °F 3.9 °F 33% 29.96 in 10.0 mi NE 8.1 mph 17.3 mph N/A   Clear
7:53 PM 30.0 °F - 3.9 °F 33% 29.99 in 10.0 mi Calm Calm - N/A   Clear
8:53 PM 28.0 °F 20.8 °F 6.1 °F 39% 30.00 in 10.0 mi East 6.9 mph - N/A   Clear
9:53 PM 28.9 °F 21.9 °F 5.0 °F 36% 30.01 in 10.0 mi SSE 6.9 mph - N/A   Clear
10:53 PM 28.0 °F 21.7 °F 5.0 °F 38% 30.03 in 10.0 mi ESE 5.8 mph - N/A   Clear
11:53 PM 28.0 °F 24.2 °F 3.0 °F 34% 30.05 in 10.0 mi North 3.5 mph - N/A   Clear